METEOR 2-5 DEB, 40215

Orbit data source: Space-Track

METEOR 2-5 DEB, 40215 is space debris in LEO originally from a launch on Wed, 31 Oct 1979 UTC launched from the Plesetsk Missile And Space Complex (PKMTR). Debris objects in space refer to the collection of defunct objects orbiting the Earth. Examples of debris include non-operational satellites, rocket bodies, and fragments generated from explosions, collisions, or faulty payload assembly.

Loading next visibility...
Identifier
40215, 1979-095CN
Orbit
LEO
Last TLE update
10 months ago
Origin
Manufacturer
Unknown
Mission
Spacecraft
Bus & Motor
Unknown
Mass
Unknown
Launch date (UTC)
1979-10-31 (46 years ago)
Launch vehicle
Unknown
Launch site
Plesetsk Missile And Space Complex (PKMTR)
Object type
Payload
Rocket body
Debris
Shape & HBR
Unknown
Radar Cross Section
Small (<0.1 m²)

Expand to show TLE details & history

TLE from 10 months ago
0 METEOR 2-5 DEB
1 40215U 79095CN  24261.25870918  .00049394  00000-0  20643-1 0  9992
2 40215  81.1923  81.4837 0007047 247.7782 112.2650 14.25800139515555
Epoch: 2024-09-17T06:12Z
TLE epoch observation values (Epoch: 2024-09-17T06:12:32.473Z)
Latitude
-0.00002°
Longitude
-8.32755°
Altitude
810.645 km
Speed
7.447 km/s
True Right ascension
05h 25m 56s
True Declination
0° 00' 00"
Sunlit
Object was in daylight at epoch
Visualization orbit readout
Latitude
59.87158°
Longitude
53.49146°
Altitude
666.692 km
Speed
7.532 km/s
Apparent Right ascension
02h 46m 44s
Apparent Declination
36° 05' 18"
Sunlit
Object is in daylight
Visualization observer readout
Local Sidereal Time
11:46:14
Azimuth
324.992° NNW
Elevation
-3.402°
Doppler factor
1
Orbital elements
Apogee altitude
808.02 km
Perigee altitude
797.899 km
Semi-major axis
7,181.096 km
Eccentricity
0.0007
Inclination
81.1923°
RAAN
81.4837°
Arg. of periapsis
247.7782°
True anomaly
112.33971°
Mean anomaly
112.265°
Eccentric anomaly
112.30236°
Mean motion
3.56662 °/min
Orbital period
100.94 mins
BSTAR
0.020643
Loading maneuver chart data...
Loading SW <> Apogee altitude chart data...
|